Location: *
(51.5000°N, 0.1100°W)
Time: 06:44:44
(UTC+00:00)

Cosmos 1455 - Pass Details

Date: 08 August 2024
Orbit: 432 x 446 km, 82.5° (Epoch: 07 September)

Event Time Altitude Azimuth Distance (km) Brightness Sun altitude
Rises 03:42:10 0° 165° (SSE) 2,469 5.4 -7.8°
Reaches altitude 10° 03:44:23 10° 155° (SSE) 1,597 4.6 -7.5°
Maximum altitude 03:47:28 31° 92° (E) 835 3.9 -7.2°
Drops below altitude 10° 03:50:34 10° 29° (NNE) 1,596 5.9 -6.8°
Sets 03:52:47 0° 19° (NNE) 2,468 6.7 -6.5°
